Regional Weather Roundup
Issued by NWS Upton, NY

Current Version | Previous Version | Text Only | Print | Product List | Glossary On
Versions: 1 2 3 4 5 6 7 8 9 10 11 12 13 14 15 16 17 18 19 20 21 22 23 24 25 26 27 28 29 30 31 32 33 34 35 36 37 38 39 40 41 42 43 44 45 46 47 48 49 50
000 ASUS41 KOKX 231918 RWROKX REGIONAL WEATHER ROUNDUP NATIONAL WEATHER SERVICE NEW YORK NY 300 PM EDT SAT MAY 23 2015 NOTE: "FAIR" INDICATES FEW OR NO CLOUDS BELOW 12,000 FEET WITH NO SIGNIFICANT WEATHER AND/OR OBSTRUCTIONS TO VISIBILITY. NYZ071-072-176-178-NJZ106-104-232000- NEW YORK CITY METRO AREA CITY SKY/WX TMP DP RH WIND PRES REMARKS CENTRAL PARK SUNNY 66 24 20 CALM 30.39F LAGUARDIA APRT SUNNY 66 24 20 NW12G20 30.37F KENNEDY INTL MOSUNNY 65 28 24 SW13G20 30.38F NEWARK/LIBERTY MOSUNNY 69 24 18 W13G22 30.37F BRNX BOT. GARD N/A 64 27 24 W20 30.39S TETERBORO SUNNY 67 24 19 NW13G20 30.36F $$ NYZ177-179-078>081-232000- LONG ISLAND NEW YORK CITY SKY/WX TMP DP RH WIND PRES REMARKS FARMINGDALE SUNNY 64 26 23 NW7G17 30.38F ISLIP MOSUNNY 64 26 23 NW10G20 30.37S SHIRLEY SUNNY 63 25 23 NW8G16 30.38F WESTHAMPTON SUNNY 60 35 39 SW13G21 30.38F MONTAUK POINT N/A 59 28 30 W10G18 30.38F $$ NYZ052-065-067-232000- HUDSON VALLEY CITY SKY/WX TMP DP RH WIND PRES REMARKS WHITE PLAINS SUNNY 63 28 26 W7 30.36F NEWBURGH SUNNY 64 32 29 W8 30.37 MONTGOMERY SUNNY 65 29 25 W15G23 30.35F POUGHKEEPSIE SUNNY 65 27 23 W7 30.34F ALBANY SUNNY 61 26 26 W13G24 30.35F $$ NJZ001-105-106-008-010-013-015-019>022-104-232000- NEW JERSEY CITY SKY/WX TMP DP RH WIND PRES REMARKS NEWARK/LIBERTY MOSUNNY 69 24 18 W13G22 30.37F TETERBORO SUNNY 67 24 19 NW13G20 30.36F CALDWELL SUNNY 65 24 21 W7 30.37F MORRISTOWN SUNNY 66 27 22 W9G17 30.38F SOMERVILLE SUNNY 67 28 23 SW5 30.36F SUSSEX SUNNY 66 25 21 NW5 30.37F ANDOVER N/A 65 27 23 VRB3 30.37F TRENTON SUNNY 66 28 24 VRB5 30.39F MILLVILLE SUNNY 67 31 26 W3 30.41F ATLANTIC CITY SUNNY 68 28 22 NW6 30.40F WRIGHTSTOWN SUNNY 66 27 23 VRB1 30.37F TOMS RIVER SUNNY N/A N/A N/A NW7 30.39F BELMAR SUNNY 64 28 25 NW8 30.40S $$ PAZ047>061-062-071-232000- EASTERN PENNSYLVANIA CITY SKY/WX TMP DP RH WIND PRES REMARKS PHILADELPHIA SUNNY 67 25 20 SW13 30.41F ALLENTOWN SUNNY 67 25 20 VRB5 30.39F SCRANTON SUNNY 64 26 23 VRB6 30.38F $$ CTZ002-004>006-009-010-012-RIZ004-006-007-MAZ004-011-015-232000- SOUTHERN NEW ENGLAND IN CT CITY SKY/WX TMP DP RH WIND PRES REMARKS BRADLEY INTL SUNNY 65 24 21 NW16 30.33F HARTFORD SUNNY 63 27 25 VRB7G17 30.35S DANBURY SUNNY 61 27 27 SW8 30.37F WTRBRY/OXFORD SUNNY 59 27 29 NW9G25 30.38F BRIDGEPORT SUNNY 63 33 32 SW16 30.36F MERIDEN SUNNY 65 22 19 NW14G20 30.35F NEW HAVEN SUNNY 58 37 45 S12G17 30.36F CHESTER FAIR 61 23 23 NW7 30.35F GROTON SUNNY 56 37 49 SW17G26 30.35S WILLIMANTIC SUNNY 62 24 23 W13G20 30.34F IN RI CITY SKY/WX TMP DP RH WIND PRES REMARKS PROVIDENCE SUNNY 63 23 21 NW16 30.32F BLOCK ISLAND SUNNY 57 28 33 W14 30.36F WESTERLY SUNNY 57 29 34 SW14G23 30.35F IN MA CITY SKY/WX TMP DP RH WIND PRES REMARKS BOSTON SUNNY 63 21 20 W20 30.30F WORCESTER SUNNY 59 19 21 W13G22 30.31F WESTFIELD SUNNY 64 20 18 N16 30.33F PROVINCETOWN SUNNY 57 27 30 NW7 30.32F NANTUCKET SUNNY 56 35 45 W21G29 30.34S $$ ANZ330-335-338-340-345-350-353-355-232000- COASTAL MARINE OBSERVATIONS STATION/POSITION TIME SKY/WX TEMP WIND PRES VSBY WAVE AIR SEA DIR/SP/G HT/PER (UTC) (F) (DEG/KT/KT) (MB) (MI) (FT/S) NY HARB ENTRANCE 1850 57 56 320/ 8/ 10 1028.9 1/ 9 4S FIRE IS 1803 54 N/A 2/ 7 20S FIRE ISLAND 1850 53 56 250/ 8/ 10 1029.5 2/ 8 GREAT SOUTH BAY 1800 58 64 330/ 6/ 10 N/A 23SW MTP 1850 51 53 250/ 8/ 10 1029.0 2/ 9 HUDSON CANYON NOT AVBL KINGS POINT 1800 58 54 180/ 2/ 5 1028.4 CENTRAL LI SOUND 1800 52 51 230/ 14/ 16 N/A EASTERN LI SOUND 1800 51 240/ 16/ 21 N/A ROBBINS REEF 1800 60 300/ 4/ 5 1027.9 $$ >>>>>>>>>>>>>>>>>>>>>>>>>>>> KEY <<<<<<<<<<<<<<<<<<<<<<<<<<< > < > SKY/WX - SKY CONDITION/PRESENT WEATHER < > TMP - TEMPERATURE IN FAHRENHEIT < > DP - DEWPOINT IN FAHRENHEIT < > RH - RELATIVE HUMIDITY IN PERCENT < > WIND - DIRECTION AND SPEED IN MPH < > PRES - MEAN SEA LEVEL PRESSURE IN INCHES OF HG < > WCI - WIND CHILL INDEX < > VSB - VISIBILITY IN MILES < > HX - HEAT INDEX < > TC - TEMPERATURE IN CELSIUS < > VRB - VARIABLE WIND DIRECTION < > < >>>>>>>>>>>>>>>>>>>>>>>>>>>> KEY <<<<<<<<<<<<<<<<<<<<<<<<<<<

USA.gov is the U.S. government's official web portal to all federal, state and local government web resources and services.